Weather Roundup
Issued by NWS Chicago, IL

Home | Current Version | Previous Version | Graphics & Text | Print | Product List | Glossary On
Versions: 1 2 3 4 5 6 7 8 9 10 11 12 13 14 15 16 17 18 19 20 21 22 23 24 25 26 27 28 29 30 31 32 33 34 35 36 37 38 39 40 41 42 43 44 45 46 47 48 49 50
324
NZUS59 KLOT 230003
HRRLOT

CHICAGO AREA WEATHER ROUNDUP
NATIONAL WEATHER SERVICE CHICAGO/ROMEOVILLE IL
600 PM CST SUN JAN 22 2017

NOTE: "FAIR" INDICATES FEW OR NO CLOUDS BELOW 12,000 FEET WITH NO
SIGNIFICANT WEATHER AND/OR OBSTRUCTIONS TO VISIBILITY.

* THESE STATIONS ARE NOT UNDER NWS QUALITY CONTROL. THEY ALSO MAY NOT
  REPORT WEATHER SUCH AS PRECIPITATION OR FOG.

ILZ005-006-012>014-019>023-230100-
NORTHEAST ILLINOIS

CITY           SKY/WX    TMP DP  RH WIND       PRES   REMARKS
OHARE          CLOUDY    42  38  85 N9        29.65R
6HR MIN TEMP:  42; 6HR MAX TEMP:  46; 6HR PCP:  0.01;

MIDWAY         CLOUDY    43  36  76 N10       29.64S
6HR MIN TEMP:  43; 6HR MAX TEMP:  46; 6HR PCP: TRACE;

AURORA         CLOUDY    39  36  89 N8        29.65S
6HR MIN TEMP:  39; 6HR MAX TEMP:  40;

LANSING*       CLOUDY    40  40 100 N8        29.64S
JOLIET*        CLOUDY    42  40  93 N7        29.64S FOG
WAUKEGAN       CLOUDY    40  37  89 CALM      29.66R
6HR MIN TEMP:  40; 6HR MAX TEMP:  45;

DUPAGE AIRPORT CLOUDY    40  36  86 N10       29.65R
6HR MIN TEMP:  40; 6HR MAX TEMP:  42; 6HR PCP: TRACE;

WHEELING       CLOUDY    41  37  86 NE6       29.66S
6HR MIN TEMP:  41; 6HR MAX TEMP:  45; 6HR PCP: TRACE;

KANKAKEE*      PTCLDY    41  38  91 N9        29.63R
MORRIS*        CLOUDY    39  37  91 N6        29.64R
LEWIS AIRPORT* CLOUDY    41  40  97 N8        29.64R
NORTHERLY ISL    N/A     38  37  97 N8          N/A
$$

WIZ051-052-058>065-066-070>072-230100-
SOUTHEAST WISCONSIN

CITY           SKY/WX    TMP DP  RH WIND       PRES   REMARKS
MILWAUKEE      CLOUDY    42  37  82 NW6       29.67R
6HR MIN TEMP:  42; 6HR MAX TEMP:  46;

KENOSHA*       CLOUDY    40  36  86 N3        29.66S
RACINE*        CLOUDY    39  37  92 N5        29.68R
WAUKESHA       PTCLDY    36  34  93 NW3       29.68R
$$

INZ001>003-010>013-019-020-230100-
NORTHWEST INDIANA

CITY           SKY/WX    TMP DP  RH WIND       PRES   REMARKS
GARY*          CLOUDY    41  41 100 N10       29.65R FOG
MICHIGAN CITY* NOT AVBL
RENSSELAER*    NOT AVBL
VALPARAISO     CLOUDY    41  41 100 N10G21    29.62S FOG
$$

LMZ740>746-230100-
SOUTHERN LAKE MICHIGAN

STATION/POSITION TIME  SKY/WX   TEMP WIND        PRES    VSBY
                                AIR  DIR/SP/G
                 (UTC)          (F)  (DEG/KT/KT) (MB)    (MI)
HARRISON CRIB    2340            38   10/ 10/ 11   N/A
BURNHAM HARBOR   0000            38   10/  8/  9   N/A
CALUMET HARBOR   2330            37  340/  8/ 10 1003.6R
BURNS HARBOR     2340            36  350/  8/ 11 1004.4R
MICHIGAN CITY    2340            37  340/ 12/ 12   N/A
$$

ABBREVIATIONS USED IN REMARKS
   TC - TEMPERATURE IN CELSIUS
  WCI - WIND CHILL INDEX
   HX - HEAT INDEX
  VSB - VISIBILITY
$$




USA.gov is the U.S. government's official web portal to all federal, state and local government web resources and services.